This is the latest recevied weather packets stored in our database for station/object DJ0JJ-11. If no packets are shown the sender has not sent any weather packets the latest 10 day(s).
| Time | Temp. | Humidity | Pressure | Rain* | Wind** | Luminosity | Snow |
|---|---|---|---|---|---|---|---|
| 1787671227 | 18.33° C | 89% | 1016.1 hPa | - | - | - | - |
| 1787670327 | 18.33° C | 89% | 1016.2 hPa | - | - | - | - |
| 1787669427 | 18.33° C | 89% | 1016.1 hPa | - | - | - | - |
| 1787668526 | 17.78° C | 89% | 1016.3 hPa | - | - | - | - |
| 1787667626 | 18.33° C | 85% | 1016.1 hPa | - | - | - | - |
| 1787666725 | 18.33° C | 84% | 1016.1 hPa | - | - | - | - |
| 1787665828 | 18.33° C | 82% | 1015.9 hPa | - | - | - | - |
| 1787664928 | 18.33° C | 83% | 1015.8 hPa | - | - | - | - |
| 1787664028 | 18.33° C | 87% | 1015.8 hPa | - | - | - | - |
| 1787663128 | 18.33° C | 88% | 1015.8 hPa | - | - | - | - |
| 1787662228 | 18.33° C | 86% | 1015.7 hPa | - | - | - | - |
| 1787661328 | 17.78° C | 84% | 1015.7 hPa | - | - | - | - |
| 1787660428 | 17.78° C | 84% | 1015.7 hPa | - | - | - | - |
| 1787659528 | 17.78° C | 86% | 1015.6 hPa | - | - | - | - |
| 1787658628 | 17.78° C | 85% | 1015.7 hPa | - | - | - | - |
| 1787657728 | 17.78° C | 84% | 1015.7 hPa | - | - | - | - |
| 1787656827 | 17.78° C | 86% | 1015.6 hPa | - | - | - | - |
| 1787655927 | 17.22° C | 88% | 1015.6 hPa | - | - | - | - |
| 1787655027 | 17.22° C | 90% | 1015.7 hPa | - | - | - | - |
| 1787654127 | 17.22° C | 88% | 1015.7 hPa | - | - | - | - |
| 1787653227 | 16.67° C | 89% | 1015.8 hPa | - | - | - | - |
| 1787652327 | 16.67° C | 92% | 1015.6 hPa | - | - | - | - |
| 1787651427 | 16.67° C | 91% | 1015.6 hPa | - | - | - | - |
| 1787650527 | 16.11° C | 91% | 1015.5 hPa | - | - | - | - |
| 1787649627 | 16.11° C | 93% | 1015.4 hPa | - | - | - | - |
* Rain since midnight (hover to see other rain measurements)
** Current wind speed in m/s (hover to see current wind gust speed)